Location: Habighorst
(52.7089°N, 10.2278°E)
Time: 14:54:40
(UTC+00:00)

USA 32 - Visible Passes

Search period start: 19 April 2026 00:00
Search period end: 29 April 2026 00:00
Orbit: 776 x 778 km, 85.0° (Epoch: 19 April)

Date Brightness Start Highest point End Pass type
(mag) Time Alt. Az. Time Alt. Az. Time Alt. Az.
19 Apr 5.4 20:25:01 10° SW 20:29:55 39° WNW 20:34:51 10° N visible
20 Apr 4.5 19:50:47 10° SSW 19:55:58 64° W 20:01:12 10° N visible
20 Apr 6.9 21:35:54 10° W 21:38:00 12° WNW 21:40:07 10° NW visible
21 Apr 4.0 19:16:54 10° S 19:22:08 80° E 19:27:23 10° N visible
21 Apr 6.6 21:00:01 10° WSW 21:03:42 19° WNW 21:07:25 10° NNW visible
22 Apr 6.0 20:25:01 10° SW 20:29:33 29° WNW 20:34:07 10° N visible
23 Apr 5.2 19:50:29 10° SSW 19:55:30 46° WNW 20:00:34 10° N visible
24 Apr 4.3 19:16:22 10° SSW 19:21:35 75° W 19:26:51 10° N visible
24 Apr 6.9 21:00:40 10° W 21:03:28 14° WNW 21:06:16 10° NNW visible
25 Apr 6.6 20:25:11 10° WSW 20:29:13 22° WNW 20:33:17 10° NNW visible
26 Apr 5.9 19:50:21 10° SW 19:55:06 34° WNW 19:59:52 10° N visible
27 Apr 4.9 19:15:59 10° SSW 19:21:06 54° WNW 19:26:16 10° N visible
27 Apr 7.4 21:02:15 10° WNW 21:03:18 11° NW 21:04:20 10° NW visible
28 Apr 6.9 20:25:39 10° WSW 20:28:57 17° WNW 20:32:17 10° NNW visible
